When you browse on this site, cookies collect data to enhance your experience and personalize the content and advertising you see.
Visit our Privacy Policy to learn more. By continuing to use the site, you agree to this use of cookies and data.
  • In Romania
  • List of Countries
  • For 7 days
  • Water Temperature
  • Weather Map
  • Weather Widgets
  • user-avatar
    Login

    Hourly Weather Hajnówka

    Today, 26 August, Monday

    Time Temperature Precipitation Wind Pressure Humidity
    00:00 +17°C° 0 mm 2 mps 755 mmHg 79%
    01:00 +17°C° 0 mm 2 mps 755 mmHg 81%
    02:00 +16°C° 0 mm 2 mps 755 mmHg 82%
    03:00 +16°C° 0 mm 2 mps 755 mmHg 84%
    04:00 +16°C° 0 mm 2 mps 754 mmHg 86%
    05:00 +15°C° 0 mm 2 mps 754 mmHg 87%
    06:00 +17°C° 0 mm 2 mps 754 mmHg 82%
    07:00 +18°C° 0 mm 3 mps 754 mmHg 77%
    08:00 +19°C° 0 mm 3 mps 754 mmHg 72%
    09:00 +21°C° 0 mm 3 mps 754 mmHg 64%
    10:00 +24°C° 0 mm 3 mps 754 mmHg 57%
    11:00 +26°C° 0 mm 4 mps 754 mmHg 49%
    12:00 +27°C° 0 mm 4 mps 754 mmHg 48%
    13:00 +27°C° 0 mm 4 mps 754 mmHg 47%
    14:00 +28°C° 0 mm 4 mps 754 mmHg 45%
    15:00 +28°C° 0 mm 4 mps 754 mmHg 48%
    16:00 +27°C° 0 mm 3 mps 754 mmHg 51%
    17:00 +27°C° 0 mm 3 mps 753 mmHg 53%
    18:00 +25°C° 0 mm 3 mps 753 mmHg 60%
    19:00 +22°C° 0 mm 3 mps 753 mmHg 68%
    20:00 +21°C° 0 mm 2 mps 753 mmHg 75%
    21:00 +20°C° 0 mm 2 mps 753 mmHg 78%
    22:00 +19°C° 0 mm 3 mps 753 mmHg 82%
    23:00 +19°C° 0 mm 3 mps 753 mmHg 85%

    Tomorrow, 27 August, Tuesday

    Time Temperature Precipitation Wind Pressure Humidity
    00:00 +18°C° 0 mm 3 mps 753 mmHg 87%
    01:00 +18°C° 0 mm 3 mps 753 mmHg 88%
    02:00 +17°C° 0 mm 3 mps 753 mmHg 89%
    03:00 +17°C° 0 mm 3 mps 753 mmHg 89%
    04:00 +17°C° 0 mm 2 mps 753 mmHg 90%
    05:00 +17°C° 0 mm 2 mps 753 mmHg 91%
    06:00 +18°C° 0 mm 3 mps 753 mmHg 86%
    07:00 +19°C° 0 mm 3 mps 753 mmHg 80%
    08:00 +21°C° 0 mm 3 mps 754 mmHg 75%
    09:00 +22°C° 0 mm 3 mps 754 mmHg 68%
    10:00 +25°C° 0 mm 3 mps 754 mmHg 61%
    11:00 +27°C° 0 mm 4 mps 754 mmHg 54%
    12:00 +28°C° 0 mm 4 mps 754 mmHg 51%
    13:00 +28°C° 0 mm 3 mps 754 mmHg 49%
    14:00 +29°C° 0 mm 3 mps 754 mmHg 46%
    15:00 +29°C° 0 mm 3 mps 753 mmHg 48%
    16:00 +28°C° 0 mm 3 mps 753 mmHg 49%
    17:00 +28°C° 0 mm 3 mps 753 mmHg 50%
    18:00 +26°C° 0 mm 3 mps 753 mmHg 58%
    19:00 +24°C° 0 mm 3 mps 753 mmHg 65%
    20:00 +21°C° 0 mm 2 mps 753 mmHg 72%
    21:00 +20°C° 0 mm 2 mps 753 mmHg 75%
    22:00 +20°C° 0 mm 2 mps 753 mmHg 78%
    23:00 +19°C° 0 mm 2 mps 753 mmHg 80%

    Day after tomorrow, 28 August, Wednesday

    Time Temperature Precipitation Wind Pressure Humidity
    00:00 +19°C° 0 mm 2 mps 753 mmHg 82%
    01:00 +18°C° 0 mm 2 mps 753 mmHg 84%
    02:00 +18°C° 0 mm 2 mps 753 mmHg 86%
    03:00 +18°C° 0 mm 3 mps 753 mmHg 87%
    04:00 +17°C° 0 mm 3 mps 753 mmHg 87%
    05:00 +17°C° 0 mm 3 mps 753 mmHg 87%
    06:00 +18°C° 0 mm 3 mps 753 mmHg 83%
    07:00 +19°C° 0 mm 3 mps 753 mmHg 79%
    08:00 +20°C° 0 mm 4 mps 753 mmHg 75%
    09:00 +22°C° 0 mm 4 mps 753 mmHg 69%
    10:00 +25°C° 0 mm 4 mps 752 mmHg 63%
    11:00 +26°C° 0 mm 4 mps 752 mmHg 57%
    12:00 +27°C° 0 mm 4 mps 752 mmHg 55%
    13:00 +28°C° 0 mm 4 mps 752 mmHg 52%
    14:00 +28°C° 0 mm 4 mps 752 mmHg 50%
    15:00 +28°C° 0 mm 4 mps 752 mmHg 52%
    16:00 +27°C° 0 mm 4 mps 752 mmHg 55%
    17:00 +27°C° 0 mm 4 mps 751 mmHg 57%
    18:00 +25°C° 0 mm 4 mps 751 mmHg 63%
    19:00 +23°C° 0 mm 4 mps 751 mmHg 69%
    20:00 +21°C° 0 mm 4 mps 751 mmHg 75%
    21:00 +21°C° 0 mm 4 mps 751 mmHg 75%
    22:00 +20°C° 0 mm 4 mps 751 mmHg 76%
    23:00 +20°C° 0 mm 4 mps 751 mmHg 76%

    29 August, Thursday

    Time Temperature Precipitation Wind Pressure Humidity
    00:00 +19°C° 0 mm 4 mps 751 mmHg 77%
    01:00 +19°C° 0 mm 4 mps 751 mmHg 78%
    02:00 +18°C° 0 mm 4 mps 751 mmHg 79%
    03:00 +18°C° 0 mm 4 mps 751 mmHg 80%
    04:00 +17°C° 0 mm 4 mps 751 mmHg 82%
    05:00 +17°C° 0 mm 4 mps 751 mmHg 83%
    06:00 +18°C° 0 mm 4 mps 751 mmHg 80%
    07:00 +18°C° 0 mm 4 mps 750 mmHg 78%
    08:00 +19°C° 0 mm 5 mps 750 mmHg 75%
    09:00 +21°C° 0 mm 5 mps 751 mmHg 69%
    10:00 +23°C° 0 mm 5 mps 751 mmHg 62%
    11:00 +26°C° 0 mm 5 mps 751 mmHg 56%
    12:00 +26°C° 0 mm 5 mps 750 mmHg 54%
    13:00 +27°C° 0 mm 5 mps 750 mmHg 52%
    14:00 +27°C° 0 mm 5 mps 750 mmHg 50%
    15:00 +27°C° 0 mm 5 mps 750 mmHg 52%
    16:00 +27°C° 0 mm 5 mps 750 mmHg 53%
    17:00 +26°C° 0 mm 5 mps 749 mmHg 55%
    18:00 +25°C° 0 mm 5 mps 749 mmHg 60%
    19:00 +22°C° 0 mm 4 mps 749 mmHg 65%
    20:00 +20°C° 0 mm 4 mps 749 mmHg 70%
    21:00 +20°C° 0 mm 4 mps 749 mmHg 71%
    22:00 +19°C° 0 mm 4 mps 749 mmHg 71%
    23:00 +19°C° 0 mm 4 mps 749 mmHg 72%

    30 August, Friday

    Time Temperature Precipitation Wind Pressure Humidity
    00:00 +18°C° 0 mm 4 mps 749 mmHg 73%
    01:00 +18°C° 0 mm 4 mps 749 mmHg 73%
    02:00 +17°C° 0 mm 4 mps 749 mmHg 74%
    03:00 +17°C° 0 mm 4 mps 749 mmHg 74%
    04:00 +15°C° 0 mm 4 mps 749 mmHg 74%
    05:00 +15°C° 0 mm 4 mps 749 mmHg 74%
    06:00 +15°C° 0 mm 4 mps 749 mmHg 70%
    07:00 +17°C° 0 mm 4 mps 749 mmHg 66%
    08:00 +17°C° 0 mm 4 mps 749 mmHg 62%
    09:00 +19°C° 0 mm 4 mps 749 mmHg 58%
    10:00 +21°C° 0 mm 4 mps 749 mmHg 54%
    11:00 +22°C° 0 mm 4 mps 750 mmHg 50%
    12:00 +25°C° 0 mm 4 mps 749 mmHg 48%
    13:00 +26°C° 0 mm 4 mps 749 mmHg 46%
    14:00 +27°C° 0 mm 4 mps 749 mmHg 45%
    15:00 +27°C° 0 mm 3 mps 749 mmHg 46%
    16:00 +27°C° 0 mm 3 mps 749 mmHg 48%
    17:00 +27°C° 0 mm 3 mps 749 mmHg 50%
    18:00 +25°C° 0 mm 3 mps 749 mmHg 56%
    19:00 +22°C° 0 mm 3 mps 749 mmHg 62%
    20:00 +20°C° 0 mm 2 mps 749 mmHg 68%
    21:00 +20°C° 0 mm 2 mps 749 mmHg 70%
    22:00 +19°C° 0 mm 2 mps 750 mmHg 73%
    23:00 +19°C° 0 mm 3 mps 750 mmHg 75%

    31 August, Saturday

    Time Temperature Precipitation Wind Pressure Humidity
    00:00 +18°C° 0 mm 2 mps 750 mmHg 76%
    01:00 +18°C° 0 mm 2 mps 750 mmHg 76%
    02:00 +17°C° 0 mm 2 mps 750 mmHg 77%
    03:00 +17°C° 0 mm 2 mps 750 mmHg 76%
    04:00 +17°C° 0 mm 2 mps 750 mmHg 76%
    05:00 +16°C° 0 mm 2 mps 750 mmHg 75%
    06:00 +17°C° 0 mm 2 mps 750 mmHg 70%
    07:00 +18°C° 0 mm 2 mps 750 mmHg 66%
    08:00 +19°C° 0 mm 2 mps 750 mmHg 61%
    09:00 +20°C° 0 mm 3 mps 750 mmHg 55%
    10:00 +22°C° 0 mm 3 mps 750 mmHg 49%
    11:00 +25°C° 0 mm 3 mps 750 mmHg 43%
    12:00 +26°C° 0 mm 3 mps 750 mmHg 41%
    13:00 +27°C° 0 mm 3 mps 750 mmHg 39%
    14:00 +27°C° 0 mm 4 mps 750 mmHg 37%
    15:00 +27°C° 0 mm 3 mps 749 mmHg 39%
    16:00 +27°C° 0 mm 3 mps 749 mmHg 41%
    17:00 +27°C° 0 mm 3 mps 749 mmHg 44%
    18:00 +25°C° 0 mm 3 mps 749 mmHg 48%
    19:00 +22°C° 0 mm 3 mps 749 mmHg 53%
    20:00 +20°C° 0 mm 2 mps 749 mmHg 58%
    21:00 +20°C° 0 mm 2 mps 749 mmHg 60%
    22:00 +19°C° 0 mm 2 mps 749 mmHg 61%
    23:00 +18°C° 0 mm 2 mps 749 mmHg 63%
    Show more